Weather History for K05U - May, 2013

Change the Weather History Date:

Saturday, May 11, 2013

  Actual Average Record
Temperature  
Mean Temperature 58 °F -  
Max Temperature 80 °F - - ()
Min Temperature 37 °F - - ()
Degree Days  
Heating Degree Days 6    
Growing Degree Days 8 (Base 50)    
Moisture  
Dew Point 29 °F    
Average Humidity 38    
Maximum Humidity 81    
Minimum Humidity 12    
Precipitation  
Precipitation 0.00 in - - ()
Sea Level Pressure  
Sea Level Pressure 30.37 in    
Wind  
Wind Speed 5 mph (SSE)    
Max Wind Speed 9 mph    
Max Gust Speed -    
Visibility 10 miles    
Events      
T = Trace of Precipitation, MM = Missing Value Source: NWS Daily Summary

Daily Weather History Graph

Daily Weather History Graph

Search for Another Location

Airport or City:

Trip Planner

Search our weather history database for the weather conditions in past years. The results will help you decide how hot, cold, wet, or windy it might be!

Date:

Astronomy

May. 11, 2013 Rise Set
Actual Time 5:33 AM PDT 7:48 PM PDT
Civil Twilight 5:03 AM PDT 8:18 PM PDT
Nautical Twilight 4:26 AM PDT 8:55 PM PDT
Astronomical Twilight 3:45 AM PDT 9:36 PM PDT
Moon 6:44 AM PDT (5/11) 9:31 PM PDT (5/11)
Length of Visible Light 15h 15m
Length of Day
14h 14m
Waxing Crescent, 3% of the Moon is Illuminated
May 11
Waxing Crescent
May 17
First Quarter
May 24
Full
May 31
Last Quarter
Jun 8
New

Hourly Weather History & Observations

Time (PDT) Temp. Windchill Dew Point Humidity Pressure Visibility Wind Dir Wind Speed Gust Speed Precip Events Conditions
12:10 AM 46.4 °F 43.5 °F 32.0 °F 57% 30.38 in 10.0 mi South 5.8 mph - N/A   Clear
12:30 AM 44.6 °F 41.4 °F 32.0 °F 61% 30.38 in 10.0 mi South 5.8 mph - N/A   Clear
12:50 AM 44.6 °F 41.4 °F 33.8 °F 66% 30.39 in 10.0 mi South 5.8 mph - N/A   Clear
1:10 AM 44.6 °F 40.7 °F 32.0 °F 61% 30.39 in 10.0 mi South 6.9 mph - N/A   Clear
1:30 AM 42.8 °F 40.1 °F 33.8 °F 70% 30.39 in 10.0 mi South 4.6 mph - N/A   Clear
1:50 AM 41.0 °F 37.1 °F 32.0 °F 70% 30.39 in 10.0 mi SSW 5.8 mph - N/A   Clear
2:10 AM 41.0 °F 37.1 °F 32.0 °F 70% 30.39 in 10.0 mi SSW 5.8 mph - N/A   Clear
2:30 AM 42.8 °F 38.0 °F 32.0 °F 66% 30.39 in 10.0 mi SSW 8.1 mph - N/A   Clear
2:50 AM 41.0 °F 35.2 °F 32.0 °F 70% 30.39 in 10.0 mi South 9.2 mph - N/A   Clear
3:10 AM 42.8 °F 37.5 °F 32.0 °F 66% 30.39 in 10.0 mi South 9.2 mph - N/A   Clear
3:30 AM 44.6 °F 40.2 °F 32.0 °F 61% 30.38 in 10.0 mi SSW 8.1 mph - N/A   Clear
3:50 AM 42.8 °F 39.3 °F 32.0 °F 66% 30.38 in 10.0 mi SSW 5.8 mph - N/A   Clear
4:10 AM 39.2 °F 34.2 °F 32.0 °F 75% 30.39 in 10.0 mi South 6.9 mph - N/A   Clear
4:30 AM 41.0 °F 35.8 °F 32.0 °F 70% 30.38 in 10.0 mi SSW 8.1 mph - N/A   Clear
4:50 AM 41.0 °F 37.1 °F 32.0 °F 70% 30.38 in 10.0 mi SSW 5.8 mph - N/A   Clear
5:30 AM 37.4 °F 32.8 °F 32.0 °F 81% 30.39 in 10.0 mi SSW 5.8 mph - N/A   Clear
5:50 AM 39.2 °F 34.2 °F 32.0 °F 75% 30.39 in 10.0 mi SW 6.9 mph - N/A   Clear
6:10 AM 41.0 °F 36.4 °F 32.0 °F 70% 30.40 in 10.0 mi SW 6.9 mph - N/A   Clear
6:30 AM 44.6 °F 42.2 °F 32.0 °F 61% 30.41 in 10.0 mi SSW 4.6 mph - N/A   Clear
6:50 AM 48.2 °F - 33.8 °F 58% 30.41 in 10.0 mi Calm Calm - N/A   Clear
7:10 AM 51.8 °F - 35.6 °F 54% 30.41 in 10.0 mi Calm Calm - N/A   Clear
7:30 AM 55.4 °F - 33.8 °F 44% 30.41 in 10.0 mi Calm Calm - N/A   Clear
7:50 AM 57.2 °F - 33.8 °F 41% 30.41 in 10.0 mi Calm Calm - N/A   Clear
8:10 AM 59.0 °F - 35.6 °F 42% 30.41 in 10.0 mi Calm Calm - N/A   Clear
8:25 AM 60.8 °F - 35.6 °F 39% 30.41 in 10.0 mi Calm Calm - N/A   Clear
8:50 AM 62.6 °F - 35.6 °F 37% 30.41 in 10.0 mi Calm Calm - N/A   Clear
9:10 AM 64.4 °F - 35.6 °F 34% 30.41 in 10.0 mi Calm Calm - N/A   Clear
9:30 AM 68.0 °F - 35.6 °F 30% 30.41 in 10.0 mi Calm Calm - N/A   Unknown
9:50 AM 68.0 °F - 32.0 °F 26% 30.40 in 10.0 mi NNE 3.5 mph - N/A   Clear
10:10 AM 69.8 °F - 32.0 °F 25% 30.40 in 10.0 mi North 4.6 mph - N/A   Clear
10:30 AM 71.6 °F - 32.0 °F 23% 30.40 in 10.0 mi NNE 4.6 mph - N/A   Clear
10:50 AM 71.6 °F - 32.0 °F 23% 30.40 in 10.0 mi East 3.5 mph - N/A   Clear
11:10 AM 73.4 °F - 28.4 °F 19% 30.39 in 10.0 mi ENE 6.9 mph - N/A   Clear
11:30 AM 73.4 °F - 23.0 °F 15% 30.39 in 10.0 mi ENE 4.6 mph - N/A   Clear
11:50 AM 75.2 °F - 24.8 °F 15% 30.39 in 10.0 mi SW 5.8 mph - N/A   Clear
12:10 PM 75.2 °F - 28.4 °F 18% 30.38 in 10.0 mi ENE 3.5 mph - N/A   Clear
12:30 PM 75.2 °F - 28.4 °F 18% 30.38 in 10.0 mi Calm Calm - N/A   Clear
12:50 PM 75.2 °F - 26.6 °F 17% 30.37 in 10.0 mi Calm Calm - N/A   Clear
1:10 PM 75.2 °F - 23.0 °F 14% 30.37 in 10.0 mi Calm Calm - N/A   Clear
1:30 PM 77.0 °F - 26.6 °F 16% 30.36 in 10.0 mi East 4.6 mph - N/A   Clear
1:50 PM 77.0 °F - 23.0 °F 13% 30.36 in 10.0 mi East 8.1 mph - N/A   Clear
2:10 PM 78.8 °F - 26.6 °F 15% 30.35 in 10.0 mi East 6.9 mph - N/A   Clear
2:30 PM 78.8 °F - 26.6 °F 15% 30.34 in 10.0 mi NE 5.8 mph - N/A   Clear
2:50 PM 77.0 °F - 24.8 °F 14% 30.34 in 10.0 mi North 3.5 mph - N/A   Partly Cloudy
3:10 PM 80.6 °F - 23.0 °F 12% 30.33 in 10.0 mi NNW 4.6 mph - N/A   Partly Cloudy
3:30 PM 78.8 °F - 24.8 °F 14% 30.32 in 10.0 mi NE 4.6 mph - N/A   Clear
3:50 PM 78.8 °F - 24.8 °F 14% 30.32 in 10.0 mi NNE 5.8 mph - N/A   Clear
4:10 PM 77.0 °F - 24.8 °F 14% 30.31 in 10.0 mi SSE 4.6 mph - N/A   Clear
4:30 PM 78.8 °F - 24.8 °F 14% 30.31 in 10.0 mi South 6.9 mph - N/A   Clear
4:50 PM 77.0 °F - 23.0 °F 13% 30.31 in 10.0 mi Calm Calm - N/A   Clear
5:10 PM 75.2 °F - 24.8 °F 15% 30.31 in 10.0 mi Calm Calm - N/A   Clear
5:30 PM 73.4 °F - 23.0 °F 15% 30.31 in 10.0 mi Calm Calm - N/A   Clear
5:50 PM 77.0 °F - 23.0 °F 13% 30.30 in 10.0 mi Calm Calm - N/A   Clear
6:10 PM 75.2 °F - 23.0 °F 14% 30.30 in 10.0 mi Calm Calm - N/A   Clear
6:30 PM 75.2 °F - 24.8 °F 15% 30.30 in 10.0 mi NE 8.1 mph - N/A   Clear
6:45 PM 75.2 °F - 24.8 °F 15% 30.30 in 10.0 mi NE 6.9 mph - N/A   Clear
7:10 PM 71.6 °F - 30.2 °F 22% 30.30 in 10.0 mi North 5.8 mph - N/A   Clear
7:30 PM 66.2 °F - 28.4 °F 24% 30.30 in 10.0 mi North 5.8 mph - N/A   Clear
7:50 PM 64.4 °F - 28.4 °F 26% 30.31 in 10.0 mi North 3.5 mph - N/A   Clear
8:30 PM 59.0 °F - 32.0 °F 36% 30.32 in 10.0 mi Calm Calm - N/A   Clear
8:50 PM 57.2 °F - 28.4 °F 33% 30.33 in 10.0 mi Calm Calm - N/A   Clear
9:10 PM 55.4 °F - 28.4 °F 36% 30.34 in 10.0 mi Calm Calm - N/A   Clear
9:30 PM 51.8 °F - 30.2 °F 44% 30.35 in 10.0 mi Calm Calm - N/A   Clear
9:50 PM 50.0 °F - 28.4 °F 43% 30.35 in 10.0 mi Calm Calm - N/A   Clear
10:10 PM 51.8 °F - 30.2 °F 44% 30.36 in 10.0 mi SSW 4.6 mph - N/A   Clear
10:30 PM 50.0 °F - 28.4 °F 43% 30.35 in 10.0 mi South 6.9 mph - N/A   Clear
10:50 PM 48.2 °F - 30.2 °F 50% 30.36 in 10.0 mi South 3.5 mph - N/A   Clear
11:10 PM 50.0 °F - 28.4 °F 43% 30.36 in 10.0 mi South 4.6 mph - N/A   Clear
11:30 PM 50.0 °F - 28.4 °F 43% 30.36 in 10.0 mi SSW 8.1 mph - N/A   Clear
11:50 PM 48.2 °F - 28.4 °F 46% 30.36 in 10.0 mi SSW 5.8 mph - N/A   Clear